[[{"header":{"parameterUnit":"m.s-1","parameterCategory":1,"la1":30.2991,"la2":30.254,"lo1":-89.0895,"lo2":-89.0444,"dy":0.0017,"dx":0.0017,"nx":28,"ny":28,"refTime":"2023-10-21T03:00:00:Z","depth":0,"parameterNumber":2,"parameterNumberName":"U-component_of_WINDS"},"data":[0,0,0,0,0,0,0,0,0,0,0,0,0,0,0,0,0,0,0,0,0,0,0,0,0,0,0,0,0,0,0,0,0,0,0,0,0,0,0,0,0,0,0,0,0,0,0,0,0,0,0,0,0,0,0,0,0,0,0.9643,0.9644,0,0.9706,0.9707,0.9707,0.9684,0.9683,0.9681,0.968,0.9748,0.9751,0.9754,0,0,0,0,0,0,0,0,0,0,0,0,0,0.9507,0.9509,0.9643,0.9644,0.9645,0.9706,0.9707,0.9708,0.9684,0.9682,0.9681,0.9679,0.9747,0.9751,0.9754,0,0,0,0,0,0,0,0,0,0,0,0,0,0.9568,0.951,0.9643,0.964,0.9641,0.9706,0.9707,0.9708,0.9685,0.9682,0.968,0.9678,0.9746,0.975,0.9755,0.9827,0,0,0.9769,0.9771,0,0,0,0,0,0,0,0,0.9564,0.9573,0.964,0.9641,0.9641,0.9685,0.9684,0.9748,0.9685,0.9668,0.968,0.9677,0.9729,0.9735,0.9751,0.983,0.9833,0.977,0.9773,0.9775,0.9776,0,0,0,0,0,0,0,0.956,0.957,0.9668,0.9641,0.9642,0.9637,0.9643,0.9696,0.971,0.9669,0.9668,0.9675,0.9729,0.9747,0.9753,0.9834,0.977,0.9774,0.9777,0.9779,0.9977,0.9979,0,0,0,0,0,0,0.9555,0.9566,0.9666,0.967,0.9596,0.9641,0.9648,0.9673,0.9709,0.9713,0.9677,0.9674,0.974,0.9747,0.9755,0.9843,0.9775,0.9779,0.9782,0.9974,0.9977,0.998,0,0,0,0,0,0,0.9552,0.9564,0.9663,0.9618,0.963,0.9646,0.9674,0.9675,0.9693,0.9715,0.9718,0.9693,0.9739,0.9749,0.9809,0.9845,0.9781,0.9785,0.9971,0.9975,0.9979,1.0018,0,0,0,0,0,0,0.9548,0.9563,0.959,0.9618,0.9633,0.9716,0.9676,0.9678,0.9701,0.9698,0.973,0.9734,0.9738,0.9802,0.9814,0.985,0.9789,0.9968,0.9973,0.9977,1.0013,1.0022,1.003,0,0,0,0,0,0.9544,0.9599,0.9591,0.9604,0.9666,0.9718,0.9726,0.9728,0.9704,0.9732,0.9746,0.9733,0.9839,0.9809,0.9822,0.986,0.9966,0.9972,0.9977,1.001,1.0021,1.003,0,0,0,0,0,0,0.9575,0.9603,0.9594,0.9661,0.9687,0.9713,0.9748,0.9739,0.9773,0.9769,0.9771,0.9779,0.9842,0.9857,0.9823,0.9932,0.9899,0.9908,0.992,0.993,0.9938,0.9933,0.9793,0,0,0,0,0,0.959,0.9628,0.9651,0.9707,0.972,0.9732,0.9755,0.9754,0.9782,0.9793,0.9811,0.984,0.988,0.9906,0.9944,1.0016,1.0023,1.0048,1.0057,1.0063,1.007,1.011,1.0122,0.9998,0.9998,0.9998,0,0,0.9621,0.964,0.9665,0.9714,0.9734,0.9775,0.9742,0.9786,0.9817,0.98,0.9858,0.9873,0.9905,0.9972,1.0002,0.9987,1.0106,1.007,1.0075,1.0079,1.0117,1.0129,1.0139,1.0002,1.0001,1.0,0,0,0.9697,0.9716,0.9765,0.9786,0.9816,0.9824,0.9836,0.9864,0.9873,0.9931,0.9919,0.9957,1.0025,1.0048,1.0069,1.0156,1.0145,1.0168,1.0211,1.025,1.026,1.0269,1.03,1.0311,1.0175,1.0175,1.0175,0,0.9732,0.9792,0.9792,0.9837,0.9859,0.9845,0.9896,0.9916,0.9958,0.9975,0.9956,1.0042,1.0062,1.0135,1.0156,1.0173,1.0188,1.0164,1.0258,1.0267,1.0275,1.0305,1.0317,1.0178,1.0178,1.0177,1.0177,0,0.9833,0.9875,0.9911,0.995,0.9977,1.0025,1.0033,1.0061,1.0058,1.0068,1.0128,1.0152,1.0195,1.0212,1.021,1.0285,1.0274,1.0257,1.0224,1.029,1.0318,1.0329,1.0182,1.0181,1.018,1.0179,0,0,0.9931,0.997,0.9983,1.0001,1.0034,1.0067,1.0115,1.0156,1.0179,1.0209,1.025,1.0308,1.0293,1.0316,1.0317,1.0352,1.0419,1.0331,1.0331,1.0346,1.0504,1.0516,1.0529,1.0413,1.0415,1.0417,1.0501,0,1.001,1.0092,1.0094,1.017,1.0209,1.0197,1.0239,1.0264,1.0275,1.0311,1.0324,1.0365,1.0341,1.0355,1.0389,1.0404,1.0451,1.0398,1.0452,1.0454,1.0444,1.0544,1.0557,1.0635,1.0512,1.0514,1.0515,0,1.0114,1.0146,1.0225,1.0253,1.0269,1.0307,1.0344,1.0378,1.0408,1.0413,1.044,1.0436,1.0486,1.0452,1.0522,1.0486,1.0508,1.0519,1.0522,1.0527,1.0488,1.0552,1.066,1.0672,1.0532,1.0531,1.053,0,1.0177,1.024,1.0296,1.0312,1.0346,1.0372,1.0388,1.0415,1.044,1.0473,1.0489,1.0529,1.0551,1.0582,1.0589,1.0563,1.066,1.0625,1.0666,1.0666,1.0687,1.0686,1.0801,1.0702,1.0701,1.0701,1.0701,0,1.0266,1.0315,1.0325,1.0359,1.0415,1.0417,1.0472,1.0486,1.051,1.0548,1.0541,1.0577,1.0584,1.0622,1.0628,1.0686,1.0696,1.0703,1.0704,1.0703,1.0702,1.0718,1.0713,1.0704,1.0704,1.0703,1.0702,0,1.0346,1.0355,1.0415,1.0442,1.045,1.0489,1.0513,1.0547,1.0557,1.0605,1.0617,1.0633,1.0677,1.0688,1.0741,1.0745,1.0813,1.0809,1.0803,1.0803,1.0843,1.0839,1.0972,1.099,1.0879,1.088,1.0881,0,1.0401,1.0439,1.047,1.0494,1.0511,1.055,1.0574,1.0579,1.0605,1.0642,1.0672,1.0715,1.0749,1.0821,1.0839,1.088,1.0877,1.0921,1.0883,1.0882,1.0878,1.0875,1.088,1.0928,1.0929,1.093,1.0931,0,1.0499,1.0502,1.0537,1.0574,1.0604,1.0634,1.0662,1.0683,1.0691,1.0722,1.0766,1.0793,1.0847,1.0891,1.0932,1.095,1.0942,1.0943,1.0954,1.0954,1.0949,1.0953,1.0823,1.0939,1.0939,1.0938,1.0938,1.0937,1.0569,1.0602,1.0629,1.0669,1.069,1.0717,1.075,1.0764,1.0801,1.0845,1.0845,1.0894,1.0924,1.0978,1.0999,1.1038,1.1025,1.1042,1.1046,1.105,1.1054,1.0943,1.1046,1.1045,1.1045,1.1045,1.1045,0,1.0667,1.0683,1.072,1.076,1.0791,1.078,1.0812,1.0839,1.0882,1.091,1.0944,1.0996,1.1038,1.1059,1.1102,1.1129,1.1127,1.114,1.1138,1.1143,1.1063,1.1049,1.1141,1.1141,1.1141,1.1141,1.1141,1.1141,1.0721,1.0776,1.0782,1.0849,1.0865,1.0912,1.0931,1.0956,1.0978,1.1036,1.1071,1.1084,1.111,1.1154,1.1193,1.1198,1.1214,1.1229,1.1233,1.1158,1.1148,1.1139,1.1125,1.1233,1.1233,1.1309,1.131,1.131]},{"header":{"parameterUnit":"m.s-1","parameterCategory":1,"la1":30.2991,"la2":30.254,"lo1":-89.0895,"lo2":-89.0444,"dy":0.0017,"dx":0.0017,"nx":28,"ny":28,"refTime":"2023-10-21T03:00:00:Z","depth":0,"parameterNumber":3,"parameterNumberName":"V-component_of_WINDS"},"data":[0,0,0,0,0,0,0,0,0,0,0,0,0,0,0,0,0,0,0,0,0,0,0,0,0,0,0,0,0,0,0,0,0,0,0,0,0,0,0,0,0,0,0,0,0,0,0,0,0,0,0,0,0,0,0,0,0,0,1.2209,1.2209,0,1.221,1.221,1.221,1.2149,1.2148,1.2146,1.2144,1.2146,1.2148,1.2149,0,0,0,0,0,0,0,0,0,0,0,0,0,1.2154,1.2155,1.2209,1.2209,1.2209,1.221,1.221,1.221,1.2149,1.2147,1.2146,1.2144,1.2146,1.2147,1.2149,0,0,0,0,0,0,0,0,0,0,0,0,0,1.2169,1.2156,1.2209,1.2179,1.2176,1.221,1.221,1.221,1.215,1.2147,1.2145,1.2143,1.2145,1.2147,1.215,1.2213,0,0,1.2157,1.2158,0,0,0,0,0,0,0,0,1.2168,1.2171,1.2183,1.2181,1.2178,1.2177,1.2192,1.2211,1.2151,1.216,1.2144,1.2142,1.2158,1.216,1.2165,1.2213,1.2213,1.2157,1.2158,1.2159,1.216,0,0,0,0,0,0,0,1.2167,1.217,1.2209,1.2183,1.218,1.2165,1.2165,1.2195,1.2173,1.2159,1.2154,1.2155,1.2156,1.2163,1.2165,1.2213,1.2157,1.2159,1.216,1.2161,1.2315,1.2317,0,0,0,0,0,0,1.217,1.217,1.2209,1.221,1.2167,1.2168,1.2168,1.218,1.2172,1.2169,1.2157,1.2153,1.216,1.2162,1.2165,1.224,1.2159,1.2162,1.2163,1.2312,1.2315,1.2318,0,0,0,0,0,0,1.2169,1.2174,1.2209,1.2189,1.2192,1.2172,1.2186,1.2181,1.2188,1.2171,1.2167,1.2168,1.2158,1.2161,1.2202,1.2239,1.2163,1.2165,1.2309,1.2313,1.2317,1.2389,0,0,0,0,0,0,1.2168,1.2174,1.2198,1.219,1.2193,1.2247,1.2188,1.2183,1.2192,1.2185,1.218,1.2177,1.2157,1.2199,1.2204,1.2241,1.2167,1.2306,1.2311,1.2316,1.2384,1.2395,1.2405,0,0,0,0,0,1.2166,1.2218,1.2199,1.2205,1.2223,1.2249,1.2251,1.2226,1.2195,1.2219,1.2209,1.2177,1.2234,1.2203,1.2209,1.2247,1.2303,1.2309,1.2315,1.2379,1.2393,1.2405,0,0,0,0,0,0,1.2231,1.2216,1.2196,1.2246,1.2249,1.2238,1.2268,1.2242,1.2254,1.2248,1.2216,1.2216,1.2262,1.2258,1.2224,1.2308,1.2263,1.227,1.2309,1.2323,1.2334,1.2334,1.2169,0,0,0,0,0,1.2251,1.2274,1.226,1.2306,1.2308,1.2288,1.2299,1.2279,1.2281,1.2282,1.2275,1.2278,1.2296,1.2309,1.2325,1.2383,1.2381,1.2411,1.2422,1.2431,1.2438,1.247,1.2484,1.2338,1.2338,1.2338,0,0,1.2293,1.2288,1.2304,1.2319,1.2319,1.2343,1.2289,1.2317,1.2335,1.2286,1.2325,1.2319,1.2321,1.2371,1.2392,1.2369,1.2478,1.2439,1.2446,1.2448,1.2478,1.2491,1.2504,1.2342,1.2341,1.2341,0,0,1.2382,1.238,1.2419,1.2421,1.2422,1.2408,1.2417,1.2411,1.2405,1.2443,1.2407,1.2428,1.246,1.2463,1.2469,1.2561,1.2533,1.2567,1.2624,1.2655,1.2667,1.2677,1.2711,1.2723,1.2574,1.2574,1.2574,0,1.2435,1.247,1.2442,1.2473,1.2481,1.2438,1.2478,1.248,1.2487,1.2494,1.2467,1.2508,1.2505,1.2556,1.2579,1.2584,1.2595,1.2568,1.2667,1.2677,1.2686,1.2718,1.2731,1.2578,1.2578,1.2577,1.2577,0,1.2535,1.256,1.2591,1.2599,1.261,1.2645,1.2623,1.2638,1.2619,1.2608,1.2648,1.2643,1.2659,1.2669,1.2649,1.2717,1.2703,1.2673,1.2626,1.2705,1.2734,1.2746,1.2584,1.2583,1.2581,1.258,0,0,1.2665,1.2657,1.267,1.2673,1.2671,1.2691,1.2724,1.2739,1.2753,1.2759,1.2787,1.2815,1.2788,1.2794,1.2775,1.2802,1.2877,1.2768,1.2768,1.279,1.2953,1.2977,1.2991,1.2858,1.286,1.2862,1.2953,0,1.2752,1.2809,1.2786,1.2845,1.2869,1.2829,1.2858,1.286,1.2852,1.287,1.286,1.2882,1.2843,1.2847,1.2872,1.2862,1.2909,1.2855,1.2884,1.2886,1.2887,1.3006,1.3031,1.3118,1.2964,1.2966,1.2968,0,1.2862,1.2873,1.2935,1.2931,1.294,1.2966,1.2979,1.2997,1.2999,1.2991,1.2999,1.2974,1.3007,1.2961,1.3006,1.297,1.2981,1.2978,1.2981,1.2983,1.2932,1.3014,1.3144,1.3158,1.2985,1.2984,1.2983,0,1.2953,1.2983,1.3024,1.3028,1.3023,1.3044,1.3043,1.3042,1.3053,1.3064,1.3071,1.3086,1.3094,1.3106,1.3086,1.3054,1.3135,1.3087,1.313,1.3131,1.315,1.3149,1.3286,1.3155,1.3155,1.3154,1.3154,0,1.3053,1.3093,1.3065,1.309,1.3134,1.3107,1.3151,1.3146,1.3146,1.317,1.3136,1.316,1.3131,1.3152,1.3136,1.3177,1.3181,1.3175,1.3171,1.3179,1.318,1.3187,1.3181,1.3158,1.3157,1.3156,1.3156,0,1.3162,1.3145,1.3187,1.318,1.3179,1.3211,1.3205,1.3229,1.3217,1.3249,1.3254,1.3237,1.326,1.3241,1.3263,1.3252,1.3307,1.3294,1.3307,1.3304,1.3349,1.3345,1.3495,1.3514,1.337,1.3371,1.3372,0,1.3228,1.3258,1.3254,1.3268,1.3269,1.3292,1.3303,1.3278,1.3291,1.3297,1.332,1.334,1.3355,1.3394,1.3383,1.34,1.3388,1.3439,1.339,1.3398,1.339,1.3389,1.3393,1.3449,1.3451,1.3452,1.3454,0,1.3348,1.3338,1.3356,1.3371,1.3386,1.3396,1.3404,1.3418,1.3392,1.3409,1.3432,1.3444,1.3467,1.3487,1.3501,1.35,1.3474,1.3469,1.348,1.349,1.3497,1.3495,1.3335,1.3466,1.3465,1.3464,1.3463,1.3463,1.3438,1.3463,1.3465,1.3486,1.349,1.3498,1.3521,1.3513,1.3532,1.3549,1.3532,1.3561,1.3564,1.3579,1.3582,1.3604,1.3583,1.3599,1.3603,1.3608,1.3615,1.3492,1.3607,1.3606,1.3606,1.3605,1.3605,0,1.3557,1.3557,1.3576,1.3589,1.3606,1.3579,1.3587,1.3603,1.3629,1.3633,1.3649,1.3677,1.3697,1.3688,1.3706,1.3726,1.3714,1.3732,1.3731,1.3731,1.3632,1.3622,1.3741,1.3741,1.3741,1.3741,1.3741,1.3741,1.3621,1.3663,1.3654,1.3697,1.3696,1.3724,1.3731,1.3739,1.3743,1.3776,1.3793,1.3787,1.3787,1.3805,1.3822,1.3819,1.3828,1.3851,1.3843,1.3751,1.3738,1.3725,1.3715,1.3852,1.3853,1.3941,1.3941,1.3942]}]]